When you browse on this site, cookies collect data to enhance your experience and personalize the content and advertising you see.
Visit our Privacy Policy to learn more. By continuing to use the site, you agree to this use of cookies and data.
  • In Österreich
  • Länderverzeichnis
  • Für 7 Tage
  • Wassertemperatur
  • Wetterkarte
  • News
  • Widgets
  • user-avatar
    Anmelden

    Stündliche Wetter Machetá

    Heute, 25 Januar, Samstag

    Zeit Temperatur Niederschläge Wind Luftdruck Luftfeuchtigkeit
    00:00 +14°C° 0 mm 0 m/S 583 mmHg 97%
    01:00 +14°C° 0 mm 0 m/S 583 mmHg 97%
    02:00 +14°C° 0 mm 0 m/S 583 mmHg 97%
    03:00 +14°C° 0 mm 0 m/S 583 mmHg 97%
    04:00 +14°C° 0 mm 0 m/S 582 mmHg 96%
    05:00 +14°C° 0 mm 0 m/S 583 mmHg 95%
    06:00 +14°C° 0 mm 0 m/S 583 mmHg 95%
    07:00 +15°C° 0 mm 0 m/S 584 mmHg 94%
    08:00 +16°C° 0.1 mm 0 m/S 585 mmHg 88%
    09:00 +18°C° 0.1 mm 0 m/S 586 mmHg 82%
    10:00 +22°C° 0.1 mm 1 m/S 587 mmHg 76%
    11:00 +22°C° 1.2 mm 1 m/S 586 mmHg 78%
    12:00 +22°C° 1.2 mm 1 m/S 586 mmHg 80%
    13:00 +22°C° 1.2 mm 1 m/S 585 mmHg 82%
    14:00 +21°C° 1.4 mm 1 m/S 584 mmHg 85%
    15:00 +21°C° 1.4 mm 1 m/S 583 mmHg 87%
    16:00 +20°C° 1.4 mm 1 m/S 583 mmHg 90%
    17:00 +19°C° 0.5 mm 1 m/S 582 mmHg 92%
    18:00 +18°C° 0.5 mm 1 m/S 582 mmHg 95%
    19:00 +15°C° 0.5 mm 0 m/S 582 mmHg 98%
    20:00 +15°C° 0.2 mm 0 m/S 583 mmHg 98%
    21:00 +15°C° 0.2 mm 0 m/S 583 mmHg 98%
    22:00 +15°C° 0.2 mm 0 m/S 584 mmHg 98%
    23:00 +15°C° 0.1 mm 0 m/S 584 mmHg 98%

    Morgen, 26 Januar, Sonntag

    Zeit Temperatur Niederschläge Wind Luftdruck Luftfeuchtigkeit
    00:00 +15°C° 0.1 mm 0 m/S 583 mmHg 98%
    01:00 +15°C° 0.1 mm 0 m/S 583 mmHg 98%
    02:00 +15°C° 0.1 mm 0 m/S 583 mmHg 98%
    03:00 +14°C° 0.1 mm 0 m/S 582 mmHg 98%
    04:00 +14°C° 0.1 mm 0 m/S 582 mmHg 97%
    05:00 +14°C° 0 mm 0 m/S 583 mmHg 96%
    06:00 +15°C° 0 mm 0 m/S 583 mmHg 96%
    07:00 +15°C° 0 mm 0 m/S 584 mmHg 95%
    08:00 +16°C° 0.1 mm 0 m/S 584 mmHg 90%
    09:00 +19°C° 0.1 mm 1 m/S 585 mmHg 85%
    10:00 +20°C° 0.1 mm 1 m/S 586 mmHg 80%
    11:00 +21°C° 0.3 mm 1 m/S 585 mmHg 78%
    12:00 +21°C° 0.3 mm 1 m/S 585 mmHg 76%
    13:00 +21°C° 0.3 mm 2 m/S 585 mmHg 74%
    14:00 +20°C° 1 mm 2 m/S 584 mmHg 78%
    15:00 +20°C° 1 mm 1 m/S 583 mmHg 82%
    16:00 +20°C° 1 mm 1 m/S 582 mmHg 86%
    17:00 +19°C° 0.6 mm 1 m/S 582 mmHg 90%
    18:00 +18°C° 0.6 mm 1 m/S 582 mmHg 93%
    19:00 +16°C° 0.6 mm 1 m/S 582 mmHg 97%
    20:00 +15°C° 0.4 mm 0 m/S 583 mmHg 97%
    21:00 +15°C° 0.4 mm 0 m/S 583 mmHg 97%
    22:00 +14°C° 0.4 mm 0 m/S 584 mmHg 97%
    23:00 +14°C° 0.4 mm 0 m/S 583 mmHg 97%

    übermorgen, 27 Januar, Montag

    Zeit Temperatur Niederschläge Wind Luftdruck Luftfeuchtigkeit
    00:00 +14°C° 0.4 mm 0 m/S 583 mmHg 97%
    01:00 +14°C° 0.4 mm 0 m/S 583 mmHg 96%
    02:00 +14°C° 0.4 mm 0 m/S 582 mmHg 96%
    03:00 +14°C° 0.4 mm 0 m/S 582 mmHg 96%
    04:00 +14°C° 0.4 mm 0 m/S 582 mmHg 96%
    05:00 +14°C° 0.2 mm 0 m/S 582 mmHg 96%
    06:00 +14°C° 0.2 mm 0 m/S 583 mmHg 96%
    07:00 +14°C° 0.2 mm 0 m/S 584 mmHg 95%
    08:00 +15°C° 0.2 mm 0 m/S 584 mmHg 92%
    09:00 +18°C° 0.2 mm 1 m/S 585 mmHg 88%
    10:00 +19°C° 0.2 mm 1 m/S 586 mmHg 84%
    11:00 +20°C° 0.8 mm 1 m/S 585 mmHg 82%
    12:00 +21°C° 0.8 mm 1 m/S 585 mmHg 80%
    13:00 +22°C° 0.8 mm 1 m/S 585 mmHg 78%
    14:00 +21°C° 1.4 mm 1 m/S 584 mmHg 81%
    15:00 +21°C° 1.4 mm 1 m/S 583 mmHg 83%
    16:00 +20°C° 1.4 mm 1 m/S 582 mmHg 86%
    17:00 +19°C° 0.7 mm 1 m/S 582 mmHg 90%
    18:00 +15°C° 0.7 mm 0 m/S 582 mmHg 93%
    19:00 +14°C° 0.7 mm 0 m/S 582 mmHg 97%
    20:00 +14°C° 0.1 mm 0 m/S 582 mmHg 97%
    21:00 +14°C° 0.1 mm 0 m/S 583 mmHg 96%
    22:00 +14°C° 0.1 mm 0 m/S 583 mmHg 96%
    23:00 +14°C° 0 mm 0 m/S 583 mmHg 96%

    28 Januar, Dienstag

    Zeit Temperatur Niederschläge Wind Luftdruck Luftfeuchtigkeit
    00:00 +13°C° 0 mm 0 m/S 582 mmHg 96%
    01:00 +14°C° 0 mm 1 m/S 582 mmHg 96%
    02:00 +13°C° 0 mm 1 m/S 581 mmHg 96%
    03:00 +13°C° 0 mm 1 m/S 581 mmHg 95%
    04:00 +13°C° 0 mm 1 m/S 581 mmHg 95%
    05:00 +13°C° 0 mm 1 m/S 582 mmHg 95%
    06:00 +14°C° 0 mm 1 m/S 582 mmHg 94%
    07:00 +14°C° 0 mm 1 m/S 583 mmHg 93%
    08:00 +18°C° 0 mm 1 m/S 584 mmHg 84%
    09:00 +20°C° 0 mm 1 m/S 586 mmHg 74%
    10:00 +23°C° 0 mm 1 m/S 587 mmHg 64%
    11:00 +23°C° 0.1 mm 1 m/S 587 mmHg 62%
    12:00 +24°C° 0.1 mm 1 m/S 586 mmHg 59%
    13:00 +24°C° 0.1 mm 2 m/S 586 mmHg 57%
    14:00 +23°C° 0.3 mm 2 m/S 585 mmHg 63%
    15:00 +22°C° 0.3 mm 1 m/S 584 mmHg 68%
    16:00 +22°C° 0.3 mm 1 m/S 583 mmHg 74%
    17:00 +20°C° 0.3 mm 1 m/S 582 mmHg 82%
    18:00 +18°C° 0.3 mm 1 m/S 582 mmHg 89%
    19:00 +14°C° 0.3 mm 0 m/S 582 mmHg 97%
    20:00 +14°C° 0.1 mm 0 m/S 582 mmHg 96%
    21:00 +14°C° 0.1 mm 0 m/S 582 mmHg 96%
    22:00 +14°C° 0.1 mm 0 m/S 583 mmHg 96%
    23:00 +14°C° 0 mm 0 m/S 582 mmHg 96%

    29 Januar, Mittwoch

    Zeit Temperatur Niederschläge Wind Luftdruck Luftfeuchtigkeit
    00:00 +13°C° 0 mm 0 m/S 582 mmHg 96%
    01:00 +13°C° 0 mm 0 m/S 581 mmHg 97%
    02:00 +14°C° 0 mm 1 m/S 581 mmHg 96%
    03:00 +14°C° 0 mm 1 m/S 581 mmHg 96%
    04:00 +14°C° 0 mm 1 m/S 581 mmHg 96%
    05:00 +14°C° 0 mm 1 m/S 582 mmHg 95%
    06:00 +14°C° 0 mm 1 m/S 582 mmHg 94%
    07:00 +14°C° 0 mm 1 m/S 583 mmHg 92%
    08:00 +16°C° 0 mm 0 m/S 584 mmHg 83%
    09:00 +19°C° 0 mm 0 m/S 585 mmHg 73%
    10:00 +21°C° 0 mm 0 m/S 587 mmHg 63%
    11:00 +23°C° 0.1 mm 1 m/S 586 mmHg 62%
    12:00 +23°C° 0.1 mm 1 m/S 586 mmHg 61%
    13:00 +23°C° 0.1 mm 1 m/S 585 mmHg 60%
    14:00 +22°C° 0.7 mm 1 m/S 584 mmHg 68%
    15:00 +21°C° 0.7 mm 1 m/S 583 mmHg 76%
    16:00 +20°C° 0.7 mm 1 m/S 582 mmHg 84%
    17:00 +19°C° 0.5 mm 1 m/S 582 mmHg 88%
    18:00 +18°C° 0.5 mm 1 m/S 582 mmHg 92%
    19:00 +14°C° 0.5 mm 0 m/S 582 mmHg 96%
    20:00 +14°C° 0.1 mm 0 m/S 582 mmHg 96%
    21:00 +14°C° 0.1 mm 0 m/S 582 mmHg 96%
    22:00 +14°C° 0.1 mm 0 m/S 582 mmHg 97%
    23:00 +14°C° 0 mm 0 m/S 582 mmHg 96%

    30 Januar, Donnerstag

    Zeit Temperatur Niederschläge Wind Luftdruck Luftfeuchtigkeit
    00:00 +14°C° 0 mm 0 m/S 582 mmHg 96%
    01:00 +14°C° 0 mm 0 m/S 582 mmHg 96%
    02:00 +13°C° 0 mm 0 m/S 581 mmHg 96%
    03:00 +13°C° 0 mm 0 m/S 581 mmHg 96%
    04:00 +13°C° 0 mm 0 m/S 581 mmHg 95%
    05:00 +13°C° 0 mm 0 m/S 582 mmHg 94%
    06:00 +14°C° 0 mm 0 m/S 582 mmHg 93%
    07:00 +14°C° 0 mm 0 m/S 583 mmHg 92%
    08:00 +16°C° 0.2 mm 0 m/S 584 mmHg 86%
    09:00 +19°C° 0.2 mm 1 m/S 585 mmHg 80%
    10:00 +21°C° 0.2 mm 1 m/S 586 mmHg 75%
    11:00 +21°C° 0.6 mm 1 m/S 585 mmHg 74%
    12:00 +21°C° 0.6 mm 2 m/S 585 mmHg 74%
    13:00 +21°C° 0.6 mm 2 m/S 584 mmHg 73%
    14:00 +20°C° 0.6 mm 2 m/S 584 mmHg 76%
    15:00 +20°C° 0.6 mm 2 m/S 583 mmHg 80%
    16:00 +19°C° 0.6 mm 2 m/S 582 mmHg 83%
    17:00 +18°C° 0.2 mm 1 m/S 582 mmHg 88%
    18:00 +16°C° 0.2 mm 1 m/S 581 mmHg 92%
    19:00 +14°C° 0.2 mm 1 m/S 581 mmHg 97%
    20:00 +14°C° 0 mm 1 m/S 581 mmHg 97%
    21:00 +14°C° 0 mm 1 m/S 581 mmHg 97%
    22:00 +12°C° 0 mm 0 m/S 582 mmHg 97%
    23:00 +12°C° 0 mm 0 m/S 581 mmHg 97%
    Mehr zeigen